This is the latest recevied weather packets stored in our database for station/object N8TWM-13. If no packets are shown the sender has not sent any weather packets the latest 10 day(s).
| Time | Temp. | Humidity | Pressure | Rain* | Wind** | Luminosity | Snow |
|---|---|---|---|---|---|---|---|
| 1787924537 | 20° C | 85% | 1021.1 hPa | 0 mm | - | 188 W/m² | - |
| 1787924232 | 20° C | 86% | 1021.3 hPa | 0 mm | - | 166 W/m² | - |
| 1787923928 | 19.44° C | 86% | 1021.1 hPa | 0 mm | - | 242 W/m² | - |
| 1787923621 | 19.44° C | 86% | 1021.1 hPa | 0 mm | - | 262 W/m² | - |
| 1787923317 | 19.44° C | 87% | 1021 hPa | 0 mm | - | 384 W/m² | - |
| 1787923016 | 19.44° C | 88% | 1021.1 hPa | 0 mm | - | 130 W/m² | - |
| 1787922711 | 19.44° C | 89% | 1021 hPa | 0 mm | - | 173 W/m² | - |
| 1787922410 | 18.89° C | 90% | 1021.2 hPa | 0 mm | - | 161 W/m² | - |
| 1787922109 | 18.89° C | 91% | 1021 hPa | 0 mm | - | 173 W/m² | - |
| 1787921808 | 18.89° C | 91% | 1020.9 hPa | 0 mm | - | 160 W/m² | - |
| 1787921502 | 18.33° C | 93% | 1020.9 hPa | 0 mm | - | 126 W/m² | - |
| 1787921196 | 18.33° C | 93% | 1020.8 hPa | 0 mm | - | 118 W/m² | - |
| 1787920892 | 18.33° C | 94% | 1020.8 hPa | 0 mm | - | 106 W/m² | - |
| 1787920587 | 18.33° C | 94% | 1020.5 hPa | 0 mm | - | 101 W/m² | - |
| 1787920281 | 17.78° C | 95% | 1020.5 hPa | 0 mm | - | 99 W/m² | - |
| 1787919974 | 18.33° C | 95% | 1020.7 hPa | 0 mm | - | 107 W/m² | - |
| 1787919673 | 18.33° C | 95% | 1020.6 hPa | 0 mm | - | 86 W/m² | - |
| 1787919368 | 18.33° C | 96% | 1020.5 hPa | 0 mm | - | 79 W/m² | - |
| 1787919064 | 17.78° C | 96% | 1020.4 hPa | 0 mm | - | 67 W/m² | - |
| 1787918764 | 17.78° C | 96% | 1020.1 hPa | 0 mm | - | 64 W/m² | - |
| 1787918458 | 17.78° C | 96% | 1020.5 hPa | 0 mm | - | 59 W/m² | - |
| 1787918156 | 17.78° C | 96% | 1020.4 hPa | 0 mm | - | 55 W/m² | - |
| 1787917851 | 17.22° C | 96% | 1020.2 hPa | 0 mm | - | 48 W/m² | - |
| 1787917547 | 17.22° C | 96% | 1020.2 hPa | 0 mm | - | 44 W/m² | - |
| 1787917244 | 17.22° C | 97% | 1020 hPa | 0 mm | - | 41 W/m² | - |
* Rain latest hour (hover to see other rain measurements)
** Current wind speed in m/s (hover to see current wind gust speed)